Time,TemperatureF,DewpointF,PressureIn,WindDirection,WindDirectionDegrees,WindSpeedMPH,WindSpeedGustMPH,Humidity,HourlyPrecipIn,Conditions,Clouds,dailyrainin,SoftwareType,DateUTC
2013-07-18 00:00:00,83.8,78.4,29.92,ENE,68,8.0,18.0,84,0.00,,,0.00,VWS V14.01,2013-07-18 06:00:00,
2013-07-18 00:30:00,83.7,78.0,29.91,ENE,68,7.0,16.0,83,0.00,,,0.00,VWS V14.01,2013-07-18 06:30:00,
2013-07-18 01:00:00,83.6,78.3,29.90,ENE,68,6.0,14.0,84,0.00,,,0.00,VWS V14.01,2013-07-18 07:00:00,
2013-07-18 01:30:00,83.5,78.2,29.89,ENE,68,6.0,14.0,84,0.00,,,0.00,VWS V14.01,2013-07-18 07:30:00,
2013-07-18 02:00:00,83.4,78.4,29.89,ENE,68,7.0,14.0,85,0.00,,,0.00,VWS V14.01,2013-07-18 08:00:00,
2013-07-18 02:30:00,83.3,78.0,29.88,ENE,68,7.0,15.0,84,0.00,,,0.00,VWS V14.01,2013-07-18 08:30:00,
2013-07-18 03:00:00,83.2,77.5,29.89,ENE,68,6.0,13.0,83,0.00,,,0.00,VWS V14.01,2013-07-18 09:00:00,
2013-07-18 03:30:00,83.2,77.5,29.90,ENE,68,6.0,11.0,83,0.00,,,0.00,VWS V14.01,2013-07-18 09:30:00,
2013-07-18 04:00:00,83.0,78.4,29.91,ENE,68,4.0,11.0,86,0.00,,,0.00,VWS V14.01,2013-07-18 10:00:00,
2013-07-18 04:30:00,83.0,78.7,29.90,ESE,112,3.0,6.0,87,0.00,,,0.00,VWS V14.01,2013-07-18 10:30:00,
2013-07-18 05:00:00,82.1,78.5,29.91,SE,135,2.0,5.0,89,0.00,,,0.00,VWS V14.01,2013-07-18 11:00:00,
2013-07-18 05:30:00,82.0,78.1,29.92,SSW,202,2.0,5.0,88,0.00,,,0.00,VWS V14.01,2013-07-18 11:30:00,
2013-07-18 06:00:00,82.2,77.9,29.92,SSE,158,0.0,3.0,87,0.00,,,0.00,VWS V14.01,2013-07-18 12:00:00,
2013-07-18 06:30:00,83.2,78.2,29.93,SSE,158,0.0,3.0,85,0.00,,,0.00,VWS V14.01,2013-07-18 12:30:00,
2013-07-18 07:00:00,84.7,78.6,29.94,SE,135,1.0,3.0,82,0.00,,,0.00,VWS V14.01,2013-07-18 13:00:00,
2013-07-18 07:30:00,87.1,79.0,29.94,SE,135,1.0,5.0,77,0.00,,,0.00,VWS V14.01,2013-07-18 13:30:00,
2013-07-18 08:00:00,86.3,77.8,29.94,SSW,202,0.0,2.0,76,0.00,,,0.00,VWS V14.01,2013-07-18 14:00:00,
2013-07-18 08:30:00,89.3,79.1,29.95,SSW,202,1.0,3.0,72,0.00,,,0.00,VWS V14.01,2013-07-18 14:30:00,
2013-07-18 09:00:00,86.6,76.9,29.95,ENE,68,3.0,7.0,73,0.00,,,0.00,VWS V14.01,2013-07-18 15:00:00,
2013-07-18 09:30:00,87.7,77.6,29.96,ENE,68,2.0,6.0,72,0.00,,,0.00,VWS V14.01,2013-07-18 15:30:00,
2013-07-18 10:00:00,86.4,77.9,29.97,ENE,68,4.0,10.0,76,0.00,,,0.00,VWS V14.01,2013-07-18 16:00:00,
2013-07-18 10:30:00,87.0,78.1,29.97,ENE,68,3.0,9.0,75,0.00,,,0.00,VWS V14.01,2013-07-18 16:30:00,
2013-07-18 11:00:00,88.8,78.2,29.96,ENE,68,3.0,8.0,71,0.00,,,0.00,VWS V14.01,2013-07-18 17:00:00,
2013-07-18 11:30:00,87.9,78.2,29.96,ENE,68,4.0,11.0,73,0.00,,,0.00,VWS V14.01,2013-07-18 17:30:00,
2013-07-18 12:12:00,87.5,78.2,29.94,ENE,76,2.0,4.0,74,0.00,,,0.00,VWS V14.01,2013-07-18 18:12:00,
2013-07-18 12:17:00,87.6,78.3,29.94,ENE,69,4.0,11.0,74,0.00,,,0.00,VWS V14.01,2013-07-18 18:17:00,
2013-07-18 12:22:00,87.8,78.1,29.93,NE,48,6.0,11.0,73,0.00,,,0.00,VWS V14.01,2013-07-18 18:22:00,
2013-07-18 12:27:00,88.3,79.0,29.93,ENE,60,7.0,11.0,74,0.00,,,0.00,VWS V14.01,2013-07-18 18:27:00,
2013-07-18 12:32:00,88.6,77.6,29.93,NNE,29,5.0,12.0,70,0.00,,,0.00,VWS V14.01,2013-07-18 18:32:00,
2013-07-18 12:37:00,88.5,78.3,29.93,ENE,58,4.0,12.0,72,0.00,,,0.00,VWS V14.01,2013-07-18 18:37:00,
2013-07-18 12:42:00,88.8,78.2,29.93,ESE,117,4.0,13.0,71,0.00,,,0.00,VWS V14.01,2013-07-18 18:42:00,
2013-07-18 12:47:00,88.4,77.4,29.93,ENE,57,10.0,14.0,70,0.00,,,0.00,VWS V14.01,2013-07-18 18:47:00,
2013-07-18 12:52:00,89.1,78.5,29.93,ENE,75,8.0,14.0,71,0.00,,,0.00,VWS V14.01,2013-07-18 18:52:00,
2013-07-18 12:57:00,89.4,78.8,29.92,ENE,77,7.0,14.0,71,0.00,,,0.00,VWS V14.01,2013-07-18 18:57:00,
2013-07-18 13:02:00,89.1,79.3,29.92,ENE,60,3.0,11.0,73,0.00,,,0.00,VWS V14.01,2013-07-18 19:02:00,
2013-07-18 13:07:00,88.2,78.4,29.92,NE,52,4.0,16.0,73,0.00,,,0.00,VWS V14.01,2013-07-18 19:07:00,
2013-07-18 13:12:00,87.7,78.4,29.91,ENE,72,2.0,16.0,74,0.00,,,0.00,VWS V14.01,2013-07-18 19:12:00,
2013-07-18 13:17:00,87.6,78.3,29.91,NNE,22,2.0,16.0,74,0.00,,,0.00,VWS V14.01,2013-07-18 19:17:00,
2013-07-18 13:22:00,87.3,78.0,29.91,ENE,68,8.0,16.0,74,0.00,,,0.00,VWS V14.01,2013-07-18 19:22:00,
2013-07-18 13:27:00,87.4,78.9,29.91,NE,49,8.0,16.0,76,0.00,,,0.00,VWS V14.01,2013-07-18 19:27:00,
2013-07-18 13:32:00,87.2,78.7,29.91,ENE,68,5.0,11.0,76,0.00,,,0.00,VWS V14.01,2013-07-18 19:32:00,
2013-07-18 13:37:00,88.2,79.7,29.91,NE,44,3.0,11.0,76,0.00,,,0.00,VWS V14.01,2013-07-18 19:37:00,
2013-07-18 13:42:00,88.0,78.7,29.91,NE,56,5.0,11.0,74,0.00,,,0.00,VWS V14.01,2013-07-18 19:42:00,
2013-07-18 13:47:00,87.8,78.9,29.90,NNE,24,3.0,12.0,75,0.00,,,0.00,VWS V14.01,2013-07-18 19:47:00,
2013-07-18 13:52:00,88.3,78.6,29.90,ENE,66,11.0,16.0,73,0.00,,,0.00,VWS V14.01,2013-07-18 19:52:00,
2013-07-18 13:57:00,88.0,78.3,29.90,NE,44,6.0,16.0,73,0.00,,,0.00,VWS V14.01,2013-07-18 19:57:00,
2013-07-18 14:02:00,87.9,78.6,29.90,NE,49,4.0,11.0,74,0.00,,,0.00,VWS V14.01,2013-07-18 20:02:00,
2013-07-18 14:07:00,87.7,78.0,29.90,North,8,5.0,15.0,73,0.00,,,0.00,VWS V14.01,2013-07-18 20:07:00,
2013-07-18 14:12:00,88.1,78.8,29.90,NE,53,5.0,15.0,74,0.00,,,0.00,VWS V14.01,2013-07-18 20:12:00,
2013-07-18 14:17:00,87.5,78.6,29.90,ENE,66,13.0,16.0,75,0.00,,,0.00,VWS V14.01,2013-07-18 20:17:00,
2013-07-18 14:22:00,87.2,78.7,29.90,ENE,59,7.0,16.0,76,0.00,,,0.00,VWS V14.01,2013-07-18 20:22:00,
2013-07-18 14:27:00,87.2,79.5,29.90,ESE,112,8.0,16.0,78,0.00,,,0.00,VWS V14.01,2013-07-18 20:27:00,
2013-07-18 14:32:00,87.0,79.3,29.90,NNE,15,6.0,12.0,78,0.00,,,0.00,VWS V14.01,2013-07-18 20:32:00,
2013-07-18 14:37:00,86.6,78.9,29.90,North,10,6.0,13.0,78,0.00,,,0.00,VWS V14.01,2013-07-18 20:37:00,
2013-07-18 14:42:00,86.6,79.3,29.89,ENE,58,5.0,15.0,79,0.00,,,0.00,VWS V14.01,2013-07-18 20:42:00,
2013-07-18 14:47:00,86.4,79.5,29.89,ENE,75,11.0,15.0,80,0.00,,,0.00,VWS V14.01,2013-07-18 20:47:00,
2013-07-18 14:52:00,86.3,79.0,29.89,ENE,70,9.0,15.0,79,0.00,,,0.00,VWS V14.01,2013-07-18 20:52:00,
2013-07-18 14:57:00,86.6,80.1,29.89,NE,49,12.0,16.0,81,0.00,,,0.00,VWS V14.01,2013-07-18 20:57:00,
2013-07-18 15:02:00,86.7,79.8,29.89,ENE,60,8.0,12.0,80,0.00,,,0.00,VWS V14.01,2013-07-18 21:02:00,
2013-07-18 15:07:00,86.3,79.4,29.88,ENE,58,7.0,12.0,80,0.00,,,0.00,VWS V14.01,2013-07-18 21:07:00,
2013-07-18 15:12:00,86.2,78.9,29.88,NE,56,3.0,14.0,79,0.00,,,0.00,VWS V14.01,2013-07-18 21:12:00,
2013-07-18 15:17:00,86.3,79.0,29.88,ENE,66,9.0,14.0,79,0.00,,,0.00,VWS V14.01,2013-07-18 21:17:00,
2013-07-18 15:22:00,86.4,78.7,29.87,NE,41,6.0,14.0,78,0.00,,,0.00,VWS V14.01,2013-07-18 21:22:00,
2013-07-18 15:27:00,86.6,78.1,29.88,ENE,63,13.0,14.0,76,0.00,,,0.00,VWS V14.01,2013-07-18 21:27:00,
2013-07-18 15:32:00,86.7,78.2,29.88,ENE,63,8.0,9.0,76,0.00,,,0.00,VWS V14.01,2013-07-18 21:32:00,
2013-07-18 15:37:00,86.9,78.0,29.87,ENE,74,11.0,13.0,75,0.00,,,0.00,VWS V14.01,2013-07-18 21:37:00,
2013-07-18 15:42:00,87.0,78.1,29.88,ENE,72,6.0,15.0,75,0.00,,,0.00,VWS V14.01,2013-07-18 21:42:00,
2013-07-18 15:47:00,86.9,78.0,29.87,NNE,13,5.0,16.0,75,0.00,,,0.00,VWS V14.01,2013-07-18 21:47:00,
2013-07-18 15:52:00,87.0,77.7,29.87,ENE,76,7.0,17.0,74,0.00,,,0.00,VWS V14.01,2013-07-18 21:52:00,
2013-07-18 15:57:00,86.8,77.9,29.87,NNW,340,8.0,21.0,75,0.00,,,0.00,VWS V14.01,2013-07-18 21:57:00,
2013-07-18 16:02:00,86.9,78.0,29.87,ENE,57,8.0,15.0,75,0.00,,,0.00,VWS V14.01,2013-07-18 22:02:00,
2013-07-18 16:07:00,87.1,78.6,29.87,East,94,9.0,15.0,76,0.00,,,0.00,VWS V14.01,2013-07-18 22:07:00,
2013-07-18 16:12:00,86.9,78.4,29.87,NNE,27,6.0,18.0,76,0.00,,,0.00,VWS V14.01,2013-07-18 22:12:00,
2013-07-18 16:17:00,86.7,78.2,29.87,NNE,22,6.0,18.0,76,0.00,,,0.00,VWS V14.01,2013-07-18 22:17:00,
2013-07-18 16:22:00,86.5,78.4,29.87,ENE,77,8.0,18.0,77,0.00,,,0.00,VWS V14.01,2013-07-18 22:22:00,
2013-07-18 16:27:00,86.6,78.5,29.87,NE,39,8.0,18.0,77,0.00,,,0.00,VWS V14.01,2013-07-18 22:27:00,
2013-07-18 16:32:00,86.6,78.5,29.87,ENE,68,5.0,11.0,77,0.00,,,0.00,VWS V14.01,2013-07-18 22:32:00,
2013-07-18 16:37:00,86.6,78.1,29.87,North,4,9.0,19.0,76,0.00,,,0.00,VWS V14.01,2013-07-18 22:37:00,
2013-07-18 16:42:00,86.3,78.6,29.88,NE,47,8.0,20.0,78,0.00,,,0.00,VWS V14.01,2013-07-18 22:42:00,
2013-07-18 16:47:00,86.3,79.4,29.88,ENE,61,10.0,20.0,80,0.00,,,0.00,VWS V14.01,2013-07-18 22:47:00,
2013-07-18 16:52:00,86.1,78.8,29.89,ENE,58,7.0,20.0,79,0.00,,,0.00,VWS V14.01,2013-07-18 22:52:00,
2013-07-18 16:57:00,85.8,78.9,29.89,ENE,77,13.0,20.0,80,0.00,,,0.00,VWS V14.01,2013-07-18 22:57:00,
2013-07-18 17:02:00,85.5,78.2,29.89,NNE,22,4.0,14.0,79,0.00,,,0.00,VWS V14.01,2013-07-18 23:02:00,
2013-07-18 17:07:00,85.4,78.5,29.89,NE,52,14.0,17.0,80,0.00,,,0.00,VWS V14.01,2013-07-18 23:07:00,
2013-07-18 17:12:00,85.3,78.8,29.89,NE,40,3.0,17.0,81,0.00,,,0.00,VWS V14.01,2013-07-18 23:12:00,
2013-07-18 17:17:00,85.3,78.8,29.89,NE,52,9.0,17.0,81,0.00,,,0.00,VWS V14.01,2013-07-18 23:17:00,
2013-07-18 17:22:00,85.0,78.1,29.89,NE,41,4.0,17.0,80,0.00,,,0.00,VWS V14.01,2013-07-18 23:22:00,
2013-07-18 17:27:00,84.8,77.9,29.89,North,11,9.0,17.0,80,0.00,,,0.00,VWS V14.01,2013-07-18 23:27:00,
2013-07-18 17:32:00,84.7,77.8,29.89,NE,56,3.0,13.0,80,0.00,,,0.00,VWS V14.01,2013-07-18 23:32:00,
2013-07-18 17:37:00,84.6,78.1,29.89,ENE,76,6.0,13.0,81,0.00,,,0.00,VWS V14.01,2013-07-18 23:37:00,
2013-07-18 17:42:00,84.5,78.0,29.89,North,4,4.0,14.0,81,0.00,,,0.00,VWS V14.01,2013-07-18 23:42:00,
2013-07-18 17:47:00,84.4,78.3,29.89,NE,46,7.0,14.0,82,0.00,,,0.00,VWS V14.01,2013-07-18 23:47:00,
2013-07-18 17:52:00,84.3,78.2,29.89,ENE,74,6.0,14.0,82,0.00,,,0.00,VWS V14.01,2013-07-18 23:52:00,
2013-07-18 17:57:00,84.3,78.2,29.89,NE,49,2.0,16.0,82,0.00,,,0.00,VWS V14.01,2013-07-18 23:57:00,
2013-07-18 18:02:00,84.2,78.1,29.89,ENE,59,12.0,14.0,82,0.00,,,0.00,VWS V14.01,2013-07-19 00:02:00,
2013-07-18 18:07:00,84.2,78.1,29.89,NNE,31,11.0,14.0,82,0.00,,,0.00,VWS V14.01,2013-07-19 00:07:00,
2013-07-18 18:12:00,84.2,78.5,29.90,North,356,6.0,15.0,83,0.00,,,0.00,VWS V14.01,2013-07-19 00:12:00,
2013-07-18 18:17:00,84.2,78.5,29.89,NNE,13,4.0,16.0,83,0.00,,,0.00,VWS V14.01,2013-07-19 00:17:00,
2013-07-18 18:22:00,84.1,78.4,29.89,ENE,63,8.0,18.0,83,0.00,,,0.00,VWS V14.01,2013-07-19 00:22:00,
2013-07-18 18:27:00,84.1,78.8,29.90,ENE,72,2.0,18.0,84,0.00,,,0.00,VWS V14.01,2013-07-19 00:27:00,
2013-07-18 18:32:00,84.1,78.8,29.90,NE,56,4.0,13.0,84,0.00,,,0.00,VWS V14.01,2013-07-19 00:32:00,
2013-07-18 18:37:00,84.1,78.4,29.90,East,79,4.0,19.0,83,0.00,,,0.00,VWS V14.01,2013-07-19 00:37:00,
2013-07-18 18:42:00,84.1,78.4,29.90,ENE,58,6.0,19.0,83,0.00,,,0.00,VWS V14.01,2013-07-19 00:42:00,
2013-07-18 18:47:00,84.1,78.4,29.90,North,349,8.0,19.0,83,0.00,,,0.00,VWS V14.01,2013-07-19 00:47:00,
2013-07-18 18:52:00,84.1,78.4,29.90,NE,56,3.0,19.0,83,0.00,,,0.00,VWS V14.01,2013-07-19 00:52:00,
2013-07-18 18:57:00,84.2,78.8,29.90,ENE,66,9.0,19.0,84,0.00,,,0.00,VWS V14.01,2013-07-19 00:57:00,
2013-07-18 19:02:00,84.1,78.4,29.91,East,79,3.0,13.0,83,0.00,,,0.00,VWS V14.01,2013-07-19 01:02:00,
2013-07-18 19:07:00,84.2,78.1,29.91,NE,54,5.0,14.0,82,0.00,,,0.00,VWS V14.01,2013-07-19 01:07:00,
2013-07-18 19:12:00,84.3,78.9,29.91,NE,53,4.0,14.0,84,0.00,,,0.00,VWS V14.01,2013-07-19 01:12:00,
2013-07-18 19:17:00,84.2,78.8,29.91,NNE,26,5.0,15.0,84,0.00,,,0.00,VWS V14.01,2013-07-19 01:17:00,
2013-07-18 19:22:00,84.2,77.7,29.91,ENE,67,9.0,17.0,81,0.00,,,0.00,VWS V14.01,2013-07-19 01:22:00,
2013-07-18 19:27:00,84.4,78.3,29.91,ENE,75,11.0,17.0,82,0.00,,,0.00,VWS V14.01,2013-07-19 01:27:00,
2013-07-18 19:32:00,84.5,78.4,29.91,NE,41,8.0,16.0,82,0.00,,,0.00,VWS V14.01,2013-07-19 01:32:00,
2013-07-18 19:37:00,84.5,78.4,29.91,ENE,77,8.0,18.0,82,0.00,,,0.00,VWS V14.01,2013-07-19 01:37:00,
2013-07-18 19:42:00,84.4,77.6,29.92,ENE,59,13.0,19.0,80,0.00,,,0.00,VWS V14.01,2013-07-19 01:42:00,
2013-07-18 19:47:00,84.5,77.7,29.91,East,94,9.0,19.0,80,0.00,,,0.00,VWS V14.01,2013-07-19 01:47:00,
2013-07-18 19:52:00,84.6,78.1,29.92,ENE,60,13.0,19.0,81,0.00,,,0.00,VWS V14.01,2013-07-19 01:52:00,
2013-07-18 19:57:00,84.6,78.5,29.92,ENE,64,7.0,19.0,82,0.00,,,0.00,VWS V14.01,2013-07-19 01:57:00,
2013-07-18 20:02:00,84.5,78.4,29.92,NE,39,8.0,15.0,82,0.00,,,0.00,VWS V14.01,2013-07-19 02:02:00,
2013-07-18 20:07:00,84.5,78.0,29.92,NNE,30,11.0,18.0,81,0.00,,,0.00,VWS V14.01,2013-07-19 02:07:00,
2013-07-18 20:12:00,84.5,78.4,29.92,NNE,20,16.0,18.0,82,0.00,,,0.00,VWS V14.01,2013-07-19 02:12:00,
2013-07-18 20:17:00,84.5,78.8,29.93,North,6,14.0,18.0,83,0.00,,,0.00,VWS V14.01,2013-07-19 02:17:00,
2013-07-18 20:22:00,84.5,78.8,29.93,NE,39,17.0,21.0,83,0.00,,,0.00,VWS V14.01,2013-07-19 02:22:00,
2013-07-18 20:27:00,84.4,78.7,29.93,ENE,63,6.0,22.0,83,0.00,,,0.00,VWS V14.01,2013-07-19 02:27:00,
2013-07-18 20:32:00,84.3,77.8,29.93,NE,35,9.0,18.0,81,0.00,,,0.00,VWS V14.01,2013-07-19 02:32:00,
2013-07-18 20:37:00,84.4,77.9,29.93,NNE,30,8.0,18.0,81,0.00,,,0.00,VWS V14.01,2013-07-19 02:37:00,
2013-07-18 20:42:00,84.3,77.5,29.93,ENE,74,7.0,18.0,80,0.00,,,0.00,VWS V14.01,2013-07-19 02:42:00,
2013-07-18 20:47:00,84.4,78.3,29.94,NE,38,6.0,18.0,82,0.00,,,0.00,VWS V14.01,2013-07-19 02:47:00,
2013-07-18 20:52:00,84.3,77.8,29.94,ENE,58,8.0,18.0,81,0.00,,,0.00,VWS V14.01,2013-07-19 02:52:00,
2013-07-18 20:57:00,84.3,77.8,29.94,ESE,110,8.0,20.0,81,0.00,,,0.00,VWS V14.01,2013-07-19 02:57:00,
2013-07-18 21:02:00,84.3,78.2,29.94,ENE,60,8.0,13.0,82,0.00,,,0.00,VWS V14.01,2013-07-19 03:02:00,
2013-07-18 21:07:00,84.2,78.1,29.94,ENE,78,7.0,14.0,82,0.00,,,0.00,VWS V14.01,2013-07-19 03:07:00,
2013-07-18 21:12:00,84.2,78.1,29.95,East,92,8.0,14.0,82,0.00,,,0.00,VWS V14.01,2013-07-19 03:12:00,
2013-07-18 21:17:00,84.1,78.4,29.95,ENE,60,7.0,17.0,83,0.00,,,0.00,VWS V14.01,2013-07-19 03:17:00,
2013-07-18 21:22:00,84.1,78.4,29.95,East,95,9.0,18.0,83,0.00,,,0.00,VWS V14.01,2013-07-19 03:22:00,
2013-07-18 21:27:00,84.1,78.4,29.95,NNE,27,10.0,19.0,83,0.00,,,0.00,VWS V14.01,2013-07-19 03:27:00,
2013-07-18 21:32:00,84.2,78.5,29.95,ENE,66,6.0,11.0,83,0.00,,,0.00,VWS V14.01,2013-07-19 03:32:00,
2013-07-18 21:37:00,84.2,78.8,29.95,ENE,61,8.0,12.0,84,0.00,,,0.00,VWS V14.01,2013-07-19 03:37:00,
2013-07-18 21:42:00,84.1,78.4,29.95,NE,37,14.0,16.0,83,0.00,,,0.00,VWS V14.01,2013-07-19 03:42:00,
2013-07-18 21:47:00,84.1,78.4,29.96,NE,56,12.0,17.0,83,0.00,,,0.00,VWS V14.01,2013-07-19 03:47:00,
2013-07-18 21:52:00,84.2,78.5,29.95,NE,56,7.0,17.0,83,0.00,,,0.00,VWS V14.01,2013-07-19 03:52:00,
2013-07-18 21:57:00,84.1,78.4,29.96,NE,49,10.0,17.0,83,0.00,,,0.00,VWS V14.01,2013-07-19 03:57:00,
2013-07-18 22:01:00,84.1,78.8,29.96,NE,35,8.0,17.0,84,0.00,,,0.00,VWS V14.01,2013-07-19 04:01:00,
2013-07-18 22:06:00,84.1,78.4,29.96,NE,56,8.0,17.0,83,0.00,,,0.00,VWS V14.01,2013-07-19 04:06:00,
2013-07-18 22:11:00,84.1,78.8,29.96,ENE,62,9.0,17.0,84,0.00,,,0.00,VWS V14.01,2013-07-19 04:11:00,
2013-07-18 22:16:00,84.1,78.8,29.96,ENE,76,9.0,17.0,84,0.00,,,0.00,VWS V14.01,2013-07-19 04:16:00,
2013-07-18 22:21:00,84.0,78.3,29.96,ENE,71,9.0,18.0,83,0.00,,,0.00,VWS V14.01,2013-07-19 04:21:00,
2013-07-18 22:26:00,84.0,78.7,29.96,ENE,65,4.0,18.0,84,0.00,,,0.00,VWS V14.01,2013-07-19 04:26:00,
2013-07-18 22:31:00,84.0,78.7,29.96,NE,40,9.0,9.0,84,0.00,,,0.00,VWS V14.01,2013-07-19 04:31:00,
2013-07-18 22:36:00,84.0,78.7,29.96,NE,56,5.0,13.0,84,0.00,,,0.00,VWS V14.01,2013-07-19 04:36:00,
2013-07-18 22:41:00,84.0,78.3,29.95,ENE,61,10.0,17.0,83,0.00,,,0.00,VWS V14.01,2013-07-19 04:41:00,
2013-07-18 22:46:00,83.9,78.6,29.95,NE,49,8.0,17.0,84,0.00,,,0.00,VWS V14.01,2013-07-19 04:46:00,
2013-07-18 22:51:00,83.9,78.6,29.95,NE,54,8.0,17.0,84,0.00,,,0.00,VWS V14.01,2013-07-19 04:51:00,
2013-07-18 22:56:00,83.9,78.6,29.95,North,6,5.0,17.0,84,0.00,,,0.00,VWS V14.01,2013-07-19 04:56:00,
2013-07-18 23:01:00,83.9,78.6,29.95,ENE,63,6.0,9.0,84,0.00,,,0.00,VWS V14.01,2013-07-19 05:01:00,
2013-07-18 23:06:00,83.8,78.4,29.95,NE,39,7.0,16.0,84,0.00,,,0.00,VWS V14.01,2013-07-19 05:06:00,
2013-07-18 23:11:00,83.8,78.4,29.94,ENE,62,4.0,16.0,84,0.00,,,0.00,VWS V14.01,2013-07-19 05:11:00,
2013-07-18 23:16:00,83.8,78.4,29.94,ENE,62,5.0,16.0,84,0.00,,,0.00,VWS V14.01,2013-07-19 05:16:00,
2013-07-18 23:21:00,83.8,78.8,29.94,ENE,65,6.0,16.0,85,0.00,,,0.00,VWS V14.01,2013-07-19 05:21:00,
2013-07-18 23:26:00,83.7,78.3,29.94,NE,56,8.0,16.0,84,0.00,,,0.00,VWS V14.01,2013-07-19 05:26:00,
2013-07-18 23:31:00,83.7,78.7,29.95,East,79,6.0,10.0,85,0.00,,,0.00,VWS V14.01,2013-07-19 05:31:00,
2013-07-18 23:36:00,83.7,78.3,29.94,East,86,4.0,16.0,84,0.00,,,0.00,VWS V14.01,2013-07-19 05:36:00,
2013-07-18 23:41:00,83.6,78.3,29.94,NNE,30,9.0,16.0,84,0.00,,,0.00,VWS V14.01,2013-07-19 05:41:00,
2013-07-18 23:46:00,83.6,77.9,29.94,NNE,32,9.0,17.0,83,0.00,,,0.00,VWS V14.01,2013-07-19 05:46:00,
2013-07-18 23:51:00,83.7,78.0,29.94,NE,41,14.0,18.0,83,0.00,,,0.00,VWS V14.01,2013-07-19 05:51:00,
2013-07-18 23:56:00,83.7,78.3,29.94,East,86,10.0,19.0,84,0.00,,,0.00,VWS V14.01,2013-07-19 05:56:00,